Regional Weather Roundup
Issued by NWS

Home | Current Version | Previous Version | Text Only | Print | Product List | Glossary Off
Versions: 1 2 3 4 5 6 7 8 9 10 11 12 13 14 15 16 17 18 19 20 21 22 23 24 25 26 27 28 29 30 31 32 33 34 35 36 37 38 39 40 41 42 43 44 45 46 47 48 49 50

000
ASUS43 KLMK 010610
RWRKY
KENTUCKY REGIONAL WEATHER ROUNDUP
NATIONAL WEATHER SERVICE LOUISVILLE KY
200 AM EDT SUN MAY 01 2016

NOTE "FAIR" INDICATES FEW OR NO CLOUDS BELOW 12,000 FEET
WITH NO SIGNIFICANT WEATHER AND/OR OBSTRUCTIONS TO VISIBILITY.

KYZ001>023-026-027-061>063-070>075-010700-
WESTERN AND SOUTH CENTRAL KENTUCKY

CITY           SKY/WX    TMP DP  RH WIND       PRES   REMARKS
PADUCAH        CLOUDY    62  60  93 CALM      29.86R
HENDERSON      MOCLDY    64  59  82 S3        29.87R
OWENSBORO      MOCLDY    65  65 100 CALM      29.89S
HOPKINSVILLE   CLEAR     65  65 100 SE5       29.88S
BOWLING GREEN  CLOUDY    67  65  93 S5        29.90R
GLASGOW        TSTM      65  65 100 SE7       29.91S
$$

KYZ024-025-028>034-038-045-046-053-010700-
NORTH CENTRAL KENTUCKY

CITY           SKY/WX    TMP DP  RH WIND       PRES   REMARKS
LOUISVILLE/SDF CLOUDY    64  62  93 SE5       29.90S
LOUISVILLE/LOU CLOUDY    64  61  90 S3        29.91S
FORT KNOX      DRIZZLE   63  62  95 S3        29.89S
$$

KYZ035>037-039>044-047>052-055>060-089>105-010700-
NORTHEAST KENTUCKY

CITY           SKY/WX    TMP DP  RH WIND       PRES   REMARKS
LEXINGTON      LGT RAIN  63  61  93 SE13      29.94F
COVINGTON      LGT RAIN  62  60  93 S9        29.91R
FRANKFORT      MOCLDY    63  60  90 SE7       29.91S
$$

KYZ054-064>069-076>088-106>120-010700-
SOUTHEAST KENTUCKY

CITY           SKY/WX    TMP DP  RH WIND       PRES   REMARKS
JACKSON        RAIN      60  58  92 VRB3      29.98F FOG
LONDON         LGT RAIN  62  60  93 SE6       29.95F
SOMERSET       CLOUDY    61  61 100 CALM      29.95F
MIDDLESBORO    CLOUDY    61  61 100 W3        29.98F
MONTICELLO     CLOUDY    64  62  93 VRB6      29.95F THUNDER
$$




USA.gov is the U.S. government's official web portal to all federal, state and local government web resources and services.